ITY8156 LIRF-LFMN

Flight info

Callsign ITY8156
Flight time N/A
Altitude 30000
Route PODOX DCT TOBGA DCT DOBIM DCT AKUTI R16 KERIT
Aircraft A21N/M-SDE2E3FGHIJ1RWXY/LB1

Departure

Time 2026-05-05 20:41
Airport Rome–Fiumicino Leonardo da Vinci International Airport (LIRF)

Arrival

Time N/A
Airport Nice-Côte d'Azur Airport (LFMN)
Time Latitude Longitude Altitude Speed Heading
2026-05-05 19:55 41.79725 12.25645 19 ft 0 kts 295°
2026-05-05 20:26 41.79724 12.25649 20 ft 3 kts 295°
2026-05-05 20:26 41.79714 12.25675 21 ft 4 kts 300°
2026-05-05 20:26 41.79699 12.25696 22 ft 4 kts 354°
2026-05-05 20:26 41.79675 12.25689 21 ft 4 kts 26°
2026-05-05 20:27 41.79666 12.25683 21 ft 0 kts 25°
2026-05-05 20:33 41.79674 12.25688 21 ft 3 kts 25°
2026-05-05 20:34 41.79693 12.25700 22 ft 4 kts 25°
2026-05-05 20:34 41.79725 12.25720 3 ft 6 kts 25°
2026-05-05 20:34 41.79770 12.25749 19 ft 8 kts 25°
2026-05-05 20:34 41.79831 12.25787 19 ft 11 kts 25°
2026-05-05 20:35 41.79903 12.25838 19 ft 13 kts 27°
2026-05-05 20:35 41.79990 12.25892 21 ft 15 kts 24°
2026-05-05 20:35 41.80091 12.25953 19 ft 17 kts 24°
2026-05-05 20:35 41.80202 12.26020 19 ft 18 kts 24°
2026-05-05 20:36 41.80323 12.26096 19 ft 20 kts 26°
2026-05-05 20:36 41.80422 12.26160 21 ft 10 kts 25°
2026-05-05 20:36 41.80497 12.26183 23 ft 12 kts 28°
2026-05-05 20:36 41.80545 12.26285 21 ft 14 kts 67°
2026-05-05 20:37 41.80585 12.26415 21 ft 16 kts 73°
2026-05-05 20:37 41.80617 12.26566 21 ft 18 kts 74°
2026-05-05 20:37 41.80658 12.26729 20 ft 19 kts 71°
2026-05-05 20:37 41.80703 12.26905 19 ft 21 kts 69°
2026-05-05 20:38 41.80751 12.27031 19 ft 7 kts 37°
2026-05-05 20:38 41.80807 12.27040 19 ft 10 kts 336°
2026-05-05 20:38 41.80863 12.27010 19 ft 8 kts 339°
2026-05-05 20:38 41.80869 12.27007 19 ft 0 kts 339°
2026-05-05 20:39 41.80876 12.27004 20 ft 9 kts 339°
2026-05-05 20:39 41.80934 12.26975 18 ft 7 kts 340°
2026-05-05 20:39 41.80956 12.26931 18 ft 0 kts 255°
2026-05-05 20:40 41.80911 12.26763 18 ft 54 kts 248°
2026-05-05 20:40 41.80686 12.25962 25 ft 128 kts 246°
2026-05-05 20:41 41.80285 12.24605 42 ft 183 kts 243°
2026-05-05 20:41 41.79818 12.22985 700 ft 186 kts 247°
2026-05-05 20:41 41.79439 12.21339 1599 ft 181 kts 249°
2026-05-05 20:41 41.79230 12.19710 2507 ft 180 kts 268°
2026-05-05 20:42 41.79375 12.18044 3319 ft 181 kts 272°
2026-05-05 20:42 41.79375 12.16313 3825 ft 198 kts 259°
2026-05-05 20:42 41.79215 12.14301 3992 ft 238 kts 262°
2026-05-05 20:42 41.79109 12.11963 4051 ft 257 kts 264°
2026-05-05 20:43 41.79026 12.09553 4045 ft 259 kts 265°
2026-05-05 20:43 41.78994 12.07170 4028 ft 259 kts 267°
2026-05-05 20:43 41.78993 12.04767 4258 ft 258 kts 267°
2026-05-05 20:43 41.78992 12.02333 5167 ft 262 kts 266°
2026-05-05 20:44 41.78989 11.99886 6145 ft 264 kts 267°
2026-05-05 20:44 41.78986 11.97414 7086 ft 266 kts 266°
2026-05-05 20:44 41.78982 11.94925 7984 ft 269 kts 266°
2026-05-05 20:44 41.78978 11.92409 8916 ft 271 kts 267°